• In Hungary
  • List of Countries
  • For 7 days
  • Water Temperature
  • Satellite Maps
  • Weather Map
  • News
  • Weather Widgets
  • user-avatar
    Login

    Hourly Weather Shusha

    Today, 20 September, Wednesday

    Time Temperature Precipitation Wind Pressure Humidity
    00:00 +18°C° 0 mm 2 mps 662 mmHg 44%
    01:00 +18°C° 0 mm 2 mps 662 mmHg 45%
    02:00 +18°C° 0 mm 1 mps 662 mmHg 46%
    03:00 +18°C° 0 mm 1 mps 662 mmHg 47%
    04:00 +18°C° 0 mm 1 mps 662 mmHg 46%
    05:00 +18°C° 0 mm 1 mps 662 mmHg 46%
    06:00 +18°C° 0 mm 1 mps 662 mmHg 46%
    07:00 +19°C° 0 mm 2 mps 663 mmHg 43%
    08:00 +21°C° 0 mm 2 mps 663 mmHg 40%
    09:00 +24°C° 0 mm 2 mps 664 mmHg 37%
    10:00 +25°C° 0 mm 2 mps 664 mmHg 34%
    11:00 +27°C° 0 mm 2 mps 664 mmHg 32%
    12:00 +28°C° 0 mm 2 mps 664 mmHg 30%
    13:00 +28°C° 0 mm 3 mps 664 mmHg 29%
    14:00 +28°C° 0 mm 3 mps 664 mmHg 29%
    15:00 +28°C° 0 mm 2 mps 663 mmHg 31%
    16:00 +26°C° 0 mm 2 mps 663 mmHg 35%
    17:00 +24°C° 0 mm 1 mps 663 mmHg 40%
    18:00 +23°C° 0 mm 1 mps 662 mmHg 44%
    19:00 +22°C° 0 mm 1 mps 662 mmHg 46%
    20:00 +21°C° 0 mm 1 mps 662 mmHg 47%
    21:00 +21°C° 0 mm 1 mps 662 mmHg 49%
    22:00 +20°C° 0 mm 1 mps 662 mmHg 49%
    23:00 +20°C° 0 mm 1 mps 662 mmHg 49%

    Tomorrow, 21 September, Thursday

    Time Temperature Precipitation Wind Pressure Humidity
    00:00 +20°C° 0 mm 1 mps 662 mmHg 49%
    01:00 +19°C° 0 mm 1 mps 662 mmHg 49%
    02:00 +19°C° 0 mm 1 mps 662 mmHg 49%
    03:00 +19°C° 0 mm 1 mps 662 mmHg 48%
    04:00 +19°C° 0 mm 1 mps 662 mmHg 48%
    05:00 +18°C° 0 mm 1 mps 662 mmHg 48%
    06:00 +18°C° 0 mm 1 mps 661 mmHg 47%
    07:00 +20°C° 0 mm 1 mps 662 mmHg 43%
    08:00 +23°C° 0 mm 2 mps 663 mmHg 39%
    09:00 +25°C° 0 mm 2 mps 663 mmHg 35%
    10:00 +26°C° 0 mm 2 mps 663 mmHg 32%
    11:00 +27°C° 0 mm 2 mps 663 mmHg 30%
    12:00 +28°C° 0 mm 3 mps 663 mmHg 28%
    13:00 +29°C° 0 mm 3 mps 663 mmHg 27%
    14:00 +29°C° 0 mm 3 mps 662 mmHg 27%
    15:00 +29°C° 0 mm 3 mps 662 mmHg 27%
    16:00 +27°C° 0 mm 2 mps 662 mmHg 31%
    17:00 +26°C° 0 mm 2 mps 661 mmHg 35%
    18:00 +24°C° 0 mm 2 mps 661 mmHg 39%
    19:00 +23°C° 0 mm 2 mps 661 mmHg 42%
    20:00 +22°C° 0 mm 1 mps 661 mmHg 46%
    21:00 +21°C° 0 mm 1 mps 661 mmHg 49%
    22:00 +20°C° 0 mm 1 mps 661 mmHg 50%
    23:00 +20°C° 0 mm 1 mps 661 mmHg 52%

    Day after tomorrow, 22 September, Friday

    Time Temperature Precipitation Wind Pressure Humidity
    00:00 +19°C° 0 mm 1 mps 661 mmHg 53%
    01:00 +19°C° 0 mm 1 mps 661 mmHg 54%
    02:00 +18°C° 0 mm 1 mps 660 mmHg 55%
    03:00 +18°C° 0 mm 1 mps 660 mmHg 56%
    04:00 +18°C° 0 mm 1 mps 660 mmHg 57%
    05:00 +18°C° 0 mm 1 mps 660 mmHg 57%
    06:00 +16°C° 0 mm 1 mps 660 mmHg 58%
    07:00 +19°C° 0 mm 1 mps 661 mmHg 51%
    08:00 +21°C° 0 mm 2 mps 661 mmHg 45%
    09:00 +24°C° 0 mm 2 mps 662 mmHg 39%
    10:00 +25°C° 0 mm 2 mps 662 mmHg 36%
    11:00 +26°C° 0 mm 3 mps 661 mmHg 32%
    12:00 +27°C° 0 mm 3 mps 661 mmHg 29%
    13:00 +27°C° 0 mm 3 mps 661 mmHg 29%
    14:00 +28°C° 0 mm 3 mps 661 mmHg 29%
    15:00 +28°C° 0 mm 3 mps 660 mmHg 29%
    16:00 +26°C° 0 mm 2 mps 660 mmHg 34%
    17:00 +24°C° 0 mm 2 mps 659 mmHg 39%
    18:00 +23°C° 0 mm 1 mps 659 mmHg 44%
    19:00 +22°C° 0 mm 1 mps 659 mmHg 46%
    20:00 +21°C° 0 mm 1 mps 659 mmHg 48%
    21:00 +20°C° 0 mm 1 mps 659 mmHg 51%
    22:00 +20°C° 0 mm 1 mps 660 mmHg 52%
    23:00 +20°C° 0 mm 1 mps 660 mmHg 53%

    23 September, Saturday

    Time Temperature Precipitation Wind Pressure Humidity
    00:00 +19°C° 0 mm 1 mps 660 mmHg 55%
    01:00 +19°C° 0 mm 1 mps 660 mmHg 57%
    02:00 +18°C° 0 mm 1 mps 660 mmHg 59%
    03:00 +16°C° 0 mm 1 mps 660 mmHg 62%
    04:00 +16°C° 0 mm 1 mps 660 mmHg 62%
    05:00 +16°C° 0 mm 1 mps 660 mmHg 63%
    06:00 +16°C° 0 mm 1 mps 660 mmHg 63%
    07:00 +19°C° 0 mm 1 mps 661 mmHg 55%
    08:00 +20°C° 0 mm 2 mps 662 mmHg 46%
    09:00 +23°C° 0 mm 2 mps 663 mmHg 38%
    10:00 +24°C° 0 mm 2 mps 663 mmHg 35%
    11:00 +25°C° 0 mm 3 mps 663 mmHg 33%
    12:00 +26°C° 0 mm 3 mps 663 mmHg 30%
    13:00 +26°C° 0 mm 3 mps 663 mmHg 31%
    14:00 +26°C° 0 mm 3 mps 662 mmHg 32%
    15:00 +26°C° 0 mm 3 mps 662 mmHg 33%
    16:00 +25°C° 0.1 mm 3 mps 662 mmHg 38%
    17:00 +23°C° 0.1 mm 2 mps 662 mmHg 43%
    18:00 +21°C° 0.1 mm 2 mps 661 mmHg 49%
    19:00 +20°C° 0 mm 2 mps 662 mmHg 51%
    20:00 +19°C° 0 mm 2 mps 662 mmHg 54%
    21:00 +18°C° 0 mm 2 mps 662 mmHg 57%
    22:00 +18°C° 0 mm 1 mps 662 mmHg 58%
    23:00 +18°C° 0 mm 1 mps 662 mmHg 60%

    24 September, Sunday

    Time Temperature Precipitation Wind Pressure Humidity
    00:00 +16°C° 0 mm 1 mps 662 mmHg 61%
    01:00 +16°C° 0 mm 1 mps 662 mmHg 61%
    02:00 +16°C° 0 mm 1 mps 662 mmHg 61%
    03:00 +16°C° 0 mm 1 mps 662 mmHg 60%
    04:00 +15°C° 0 mm 1 mps 662 mmHg 60%
    05:00 +15°C° 0 mm 1 mps 662 mmHg 60%
    06:00 +15°C° 0 mm 1 mps 662 mmHg 60%
    07:00 +18°C° 0 mm 1 mps 663 mmHg 53%
    08:00 +19°C° 0 mm 2 mps 664 mmHg 46%
    09:00 +21°C° 0 mm 2 mps 664 mmHg 39%
    10:00 +23°C° 0 mm 2 mps 664 mmHg 36%
    11:00 +24°C° 0 mm 3 mps 664 mmHg 34%
    12:00 +25°C° 0 mm 3 mps 664 mmHg 31%
    13:00 +26°C° 0 mm 3 mps 664 mmHg 31%
    14:00 +26°C° 0 mm 3 mps 664 mmHg 31%
    15:00 +26°C° 0 mm 3 mps 664 mmHg 32%
    16:00 +24°C° 0 mm 3 mps 663 mmHg 37%
    17:00 +22°C° 0 mm 3 mps 663 mmHg 42%
    18:00 +20°C° 0 mm 2 mps 663 mmHg 47%
    19:00 +19°C° 0 mm 2 mps 663 mmHg 53%
    20:00 +18°C° 0 mm 2 mps 663 mmHg 58%
    21:00 +17°C° 0 mm 2 mps 663 mmHg 64%
    22:00 +16°C° 0 mm 2 mps 663 mmHg 65%
    23:00 +16°C° 0 mm 1 mps 663 mmHg 67%

    25 September, Monday

    Time Temperature Precipitation Wind Pressure Humidity
    00:00 +16°C° 0 mm 1 mps 663 mmHg 68%
    01:00 +15°C° 0 mm 1 mps 663 mmHg 69%
    02:00 +15°C° 0 mm 1 mps 663 mmHg 70%
    03:00 +15°C° 0 mm 1 mps 662 mmHg 70%
    04:00 +14°C° 0 mm 1 mps 663 mmHg 71%
    05:00 +14°C° 0 mm 1 mps 663 mmHg 72%
    06:00 +14°C° 0 mm 1 mps 663 mmHg 73%
    07:00 +16°C° 0 mm 1 mps 663 mmHg 66%
    08:00 +18°C° 0 mm 2 mps 664 mmHg 58%
    09:00 +20°C° 0 mm 2 mps 664 mmHg 51%
    10:00 +21°C° 0 mm 2 mps 664 mmHg 47%
    11:00 +22°C° 0 mm 3 mps 664 mmHg 43%
    12:00 +25°C° 0 mm 3 mps 664 mmHg 39%
    13:00 +25°C° 0 mm 3 mps 664 mmHg 39%
    14:00 +25°C° 0 mm 3 mps 664 mmHg 38%
    15:00 +25°C° 0 mm 3 mps 663 mmHg 38%
    16:00 +24°C° 0 mm 3 mps 663 mmHg 43%
    17:00 +21°C° 0 mm 3 mps 663 mmHg 48%
    18:00 +19°C° 0 mm 2 mps 663 mmHg 53%
    19:00 +18°C° 0 mm 2 mps 663 mmHg 58%
    20:00 +17°C° 0 mm 2 mps 663 mmHg 63%
    21:00 +16°C° 0 mm 1 mps 663 mmHg 67%
    22:00 +16°C° 0 mm 1 mps 663 mmHg 69%
    23:00 +16°C° 0 mm 1 mps 663 mmHg 70%
    Show more